STARLINK-30197, 57443

Orbit data source: Space-Track

STARLINK-30197, 57443 is a payload satellite owned by SpaceX/Seattle (US) in LEO that was launched on Mon, 24 Jul 2023 UTC via an FALCON 9 launch vehicle from the Air Force Eastern Test Range (AFETR). Payload-class satellites include a variety of spacecraft equipped with specific instruments for various scientific and technological missions. These include communications satellites like Starlink; space stations such as the ISS; scientific satellites like the Hubble; Earth observation satellites from companies like Planet Labs, Umbra, and HawkEye 360; GPS; miniature CubeSats for education and research; and military/defense satellites.

Loading next visibility...
Identifier
57443, 2023-105P
Orbit
LEO
Country
Flag of USUS
Related business
Manufacturer
SpaceX/Seattle
Mission
Operational Commercial Communications
Bus & Motor
STARLINK V2M, Unknown motor
Mass
730 kg wet, ~700 kg dry
Launch date (UTC)
2023-07-24 (3 years ago)
Launch vehicle
FALCON 9
Launch site
Air Force Eastern Test Range (AFETR)
Object type
Payload
Rocket body
Debris
Shape & HBR
Box + 2 Pan, 17.7 m
Radar Cross Section
33.884 m², Large (>1 m²)

Expand to show TLE details & history
Last TLE update: 2 days ago

TLE from 2 days ago
0 STARLINK-30197
1 57443U 23105P   26171.34800763  .00001885  00000-0  78039-4 0  9995
2 57443  43.0049  39.9572 0001218 264.7192  95.3521 15.27566162161287
Epoch: 2026-06-20T08:21Z
TLE epoch observation values (Epoch: 2026-06-20T08:21:07.859Z)
Latitude
0.00001°
Longitude
6.11054°
Altitude
482.945 km
Speed
7.626 km/s
True Right ascension
02h 39m 49s
True Declination
0° 00' 00"
Sunlit
Object was in daylight at epoch
Visualization orbit readout
Latitude
Unknown
Longitude
Unknown
Altitude
Unknown
Speed
Unknown
Apparent Right ascension
Unknown
Apparent Declination
Unknown
Sunlit
N/A
Visualization observer readout
Local Sidereal Time
21:29:27
Azimuth
Unknown
Elevation
Unknown
Doppler factor
Unknown
Orbital elements
Apogee altitude
485.871 km
Perigee altitude
484.199 km
Semi-major axis
6,863.172 km
Eccentricity
0.00012
Inclination
43.0049°
RAAN
39.9572°
Arg. of periapsis
264.7192°
True anomaly
95.366°
Mean anomaly
95.3521°
Eccentric anomaly
95.35905°
Mean motion
3.8173 °/min
Orbital period
94.31 mins
BSTAR
0.000078039
Loading maneuver chart data...
Computing Atmospheric mass density...

Documentation

Showing up to 5 results
|